• In Hungary
  • List of Countries
  • For 7 days
  • Water Temperature
  • Satellite Maps
  • Weather Map
  • News
  • Weather Widgets
  • user-avatar
    Login

    Hourly Weather Sagan-Nur

    Today, 17 October, Tuesday

    Time Temperature Precipitation Wind Pressure Humidity
    00:00 -9°C° 0 mm 2 mps 571 mmHg 58%
    01:00 -9°C° 0 mm 2 mps 571 mmHg 59%
    02:00 -9°C° 0 mm 2 mps 571 mmHg 61%
    03:00 -9°C° 0 mm 2 mps 571 mmHg 63%
    04:00 -9°C° 0 mm 2 mps 571 mmHg 64%
    05:00 -9°C° 0.1 mm 2 mps 572 mmHg 68%
    06:00 -10°C° 0.1 mm 2 mps 572 mmHg 71%
    07:00 -10°C° 0.1 mm 2 mps 572 mmHg 75%
    08:00 -8°C° 0.1 mm 2 mps 573 mmHg 77%
    09:00 -7°C° 0.1 mm 2 mps 573 mmHg 79%
    10:00 -5°C° 0.1 mm 2 mps 574 mmHg 80%
    11:00 -5°C° 0.1 mm 2 mps 574 mmHg 80%
    12:00 -4°C° 0.1 mm 2 mps 574 mmHg 80%
    13:00 -4°C° 0.1 mm 2 mps 574 mmHg 81%
    14:00 -4°C° 0.1 mm 2 mps 574 mmHg 81%
    15:00 -4°C° 0.1 mm 2 mps 574 mmHg 82%
    16:00 -2°C° 0.1 mm 1 mps 574 mmHg 83%
    17:00 -3°C° 0.1 mm 1 mps 574 mmHg 85%
    18:00 -4°C° 0.1 mm 1 mps 574 mmHg 87%
    19:00 -7°C° 0.1 mm 1 mps 574 mmHg 89%
    20:00 -7°C° 0.1 mm 1 mps 574 mmHg 89%
    21:00 -7°C° 0.1 mm 1 mps 574 mmHg 90%
    22:00 -7°C° 0.1 mm 1 mps 574 mmHg 90%
    23:00 -7°C° 0.1 mm 1 mps 574 mmHg 90%

    Tomorrow, 18 October, Wednesday

    Time Temperature Precipitation Wind Pressure Humidity
    00:00 -8°C° 0.1 mm 1 mps 574 mmHg 90%
    01:00 -8°C° 0.1 mm 1 mps 574 mmHg 91%
    02:00 -8°C° 0 mm 1 mps 574 mmHg 90%
    03:00 -9°C° 0 mm 1 mps 573 mmHg 90%
    04:00 -9°C° 0 mm 1 mps 573 mmHg 90%
    05:00 -9°C° 0 mm 1 mps 573 mmHg 90%
    06:00 -10°C° 0 mm 1 mps 573 mmHg 90%
    07:00 -10°C° 0 mm 1 mps 573 mmHg 90%
    08:00 -8°C° 0 mm 1 mps 573 mmHg 88%
    09:00 -7°C° 0 mm 1 mps 574 mmHg 86%
    10:00 -4°C° 0 mm 1 mps 575 mmHg 83%
    11:00 -3°C° 0 mm 1 mps 575 mmHg 82%
    12:00 -3°C° 0 mm 1 mps 574 mmHg 81%
    13:00 -2°C° 0 mm 1 mps 574 mmHg 79%
    14:00 -2°C° 0 mm 1 mps 574 mmHg 80%
    15:00 -3°C° 0 mm 1 mps 573 mmHg 81%
    16:00 -3°C° 0 mm 1 mps 573 mmHg 82%
    17:00 -6°C° 0 mm 1 mps 572 mmHg 83%
    18:00 -7°C° 0 mm 1 mps 572 mmHg 84%
    19:00 -9°C° 0 mm 1 mps 572 mmHg 85%
    20:00 -9°C° 0 mm 1 mps 572 mmHg 83%
    21:00 -9°C° 0 mm 1 mps 571 mmHg 81%
    22:00 -10°C° 0 mm 2 mps 571 mmHg 80%
    23:00 -10°C° 0 mm 2 mps 571 mmHg 78%

    Day after tomorrow, 19 October, Thursday

    Time Temperature Precipitation Wind Pressure Humidity
    00:00 -12°C° 0 mm 2 mps 571 mmHg 76%
    01:00 -12°C° 0 mm 2 mps 571 mmHg 74%
    02:00 -12°C° 0 mm 2 mps 571 mmHg 73%
    03:00 -12°C° 0 mm 2 mps 571 mmHg 73%
    04:00 -10°C° 0 mm 1 mps 571 mmHg 72%
    05:00 -10°C° 0 mm 1 mps 571 mmHg 71%
    06:00 -10°C° 0 mm 1 mps 571 mmHg 71%
    07:00 -10°C° 0 mm 1 mps 571 mmHg 70%
    08:00 -8°C° 0 mm 1 mps 571 mmHg 70%
    09:00 -6°C° 0 mm 1 mps 572 mmHg 70%
    10:00 -4°C° 0 mm 1 mps 573 mmHg 71%
    11:00 -3°C° 0 mm 1 mps 573 mmHg 71%
    12:00 -2°C° 0 mm 1 mps 573 mmHg 71%
    13:00 -1°C° 0 mm 1 mps 573 mmHg 71%
    14:00 -2°C° 0 mm 1 mps 573 mmHg 72%
    15:00 -2°C° 0 mm 1 mps 572 mmHg 74%
    16:00 -3°C° 0 mm 1 mps 572 mmHg 75%
    17:00 -4°C° 0 mm 1 mps 572 mmHg 76%
    18:00 -7°C° 0 mm 1 mps 572 mmHg 76%
    19:00 -8°C° 0 mm 1 mps 571 mmHg 77%
    20:00 -8°C° 0 mm 1 mps 571 mmHg 76%
    21:00 -8°C° 0 mm 1 mps 571 mmHg 75%
    22:00 -8°C° 0 mm 1 mps 571 mmHg 74%
    23:00 -8°C° 0 mm 1 mps 571 mmHg 74%

    20 October, Friday

    Time Temperature Precipitation Wind Pressure Humidity
    00:00 -8°C° 0 mm 1 mps 571 mmHg 73%
    01:00 -8°C° 0 mm 1 mps 571 mmHg 73%
    02:00 -8°C° 0 mm 1 mps 571 mmHg 72%
    03:00 -8°C° 0 mm 1 mps 571 mmHg 72%
    04:00 -8°C° 0 mm 1 mps 570 mmHg 72%
    05:00 -9°C° 0 mm 2 mps 570 mmHg 72%
    06:00 -9°C° 0 mm 2 mps 570 mmHg 72%
    07:00 -9°C° 0 mm 2 mps 570 mmHg 72%
    08:00 -8°C° 0 mm 2 mps 571 mmHg 72%
    09:00 -6°C° 0 mm 2 mps 571 mmHg 73%
    10:00 -5°C° 0 mm 2 mps 571 mmHg 73%
    11:00 -5°C° 0.2 mm 2 mps 571 mmHg 76%
    12:00 -5°C° 0.2 mm 2 mps 571 mmHg 79%
    13:00 -4°C° 0.2 mm 2 mps 571 mmHg 82%
    14:00 -5°C° 0.4 mm 2 mps 571 mmHg 86%
    15:00 -5°C° 0.4 mm 2 mps 571 mmHg 89%
    16:00 -5°C° 0.4 mm 2 mps 570 mmHg 93%
    17:00 -5°C° 0.4 mm 2 mps 571 mmHg 93%
    18:00 -6°C° 0.4 mm 2 mps 571 mmHg 94%
    19:00 -7°C° 0.4 mm 3 mps 571 mmHg 95%
    20:00 -8°C° 0.2 mm 3 mps 571 mmHg 95%
    21:00 -8°C° 0.2 mm 3 mps 572 mmHg 95%
    22:00 -8°C° 0.2 mm 3 mps 572 mmHg 95%
    23:00 -9°C° 0.1 mm 3 mps 572 mmHg 95%

    21 October, Saturday

    Time Temperature Precipitation Wind Pressure Humidity
    00:00 -8°C° 0.1 mm 2 mps 572 mmHg 95%
    01:00 -8°C° 0.1 mm 2 mps 572 mmHg 95%
    02:00 -8°C° 0.1 mm 2 mps 572 mmHg 95%
    03:00 -9°C° 0.1 mm 2 mps 572 mmHg 95%
    04:00 -9°C° 0.1 mm 2 mps 572 mmHg 95%
    05:00 -9°C° 0 mm 2 mps 572 mmHg 95%
    06:00 -10°C° 0 mm 2 mps 572 mmHg 95%
    07:00 -10°C° 0 mm 2 mps 572 mmHg 95%
    08:00 -9°C° 0 mm 2 mps 572 mmHg 93%
    09:00 -8°C° 0 mm 2 mps 573 mmHg 91%
    10:00 -7°C° 0 mm 2 mps 573 mmHg 89%
    11:00 -6°C° 0 mm 2 mps 573 mmHg 86%
    12:00 -7°C° 0 mm 3 mps 572 mmHg 83%
    13:00 -6°C° 0 mm 3 mps 572 mmHg 79%
    14:00 -6°C° 0 mm 3 mps 572 mmHg 80%
    15:00 -7°C° 0 mm 3 mps 571 mmHg 81%
    16:00 -7°C° 0 mm 3 mps 571 mmHg 82%
    17:00 -8°C° 0 mm 3 mps 571 mmHg 83%
    18:00 -9°C° 0 mm 3 mps 571 mmHg 83%
    19:00 -10°C° 0 mm 3 mps 571 mmHg 84%
    20:00 -10°C° 0 mm 3 mps 571 mmHg 84%
    21:00 -10°C° 0 mm 3 mps 571 mmHg 84%
    22:00 -9°C° 0 mm 3 mps 571 mmHg 84%
    23:00 -9°C° 0 mm 3 mps 571 mmHg 84%

    22 October, Sunday

    Time Temperature Precipitation Wind Pressure Humidity
    00:00 -9°C° 0 mm 3 mps 571 mmHg 84%
    01:00 -9°C° 0 mm 3 mps 571 mmHg 83%
    02:00 -9°C° 0 mm 3 mps 571 mmHg 83%
    03:00 -10°C° 0 mm 3 mps 571 mmHg 82%
    04:00 -10°C° 0 mm 3 mps 571 mmHg 82%
    05:00 -10°C° 0 mm 3 mps 571 mmHg 81%
    06:00 -10°C° 0 mm 3 mps 571 mmHg 80%
    07:00 -10°C° 0 mm 3 mps 571 mmHg 79%
    08:00 -9°C° 0 mm 3 mps 571 mmHg 78%
    09:00 -8°C° 0 mm 3 mps 571 mmHg 77%
    10:00 -6°C° 0 mm 3 mps 571 mmHg 76%
    11:00 -6°C° 0 mm 3 mps 571 mmHg 76%
    12:00 -5°C° 0 mm 3 mps 570 mmHg 75%
    13:00 -4°C° 0 mm 3 mps 570 mmHg 75%
    14:00 -4°C° 0 mm 3 mps 569 mmHg 75%
    15:00 -5°C° 0 mm 3 mps 569 mmHg 76%
    16:00 -5°C° 0 mm 3 mps 568 mmHg 76%
    17:00 -6°C° 0 mm 3 mps 568 mmHg 75%
    18:00 -8°C° 0 mm 4 mps 567 mmHg 74%
    19:00 -9°C° 0 mm 4 mps 567 mmHg 72%
    20:00 -9°C° 0 mm 4 mps 566 mmHg 72%
    21:00 -9°C° 0 mm 4 mps 566 mmHg 71%
    22:00 -9°C° 0 mm 4 mps 565 mmHg 70%
    23:00 -9°C° 0 mm 4 mps 565 mmHg 71%
    Show more